Volver al catálogo

TIANHUI 5D

ActivoCienciaSSO
NORAD 60212·PAYLOAD·🇨🇳 China

Lanzado Jul 4, 2024 desde Taiyuan Satellite Launch Center

Loading…

Próximos Pases (próximas 24 horas)

TLE

ActualizadoSource: Space-Track

Época: Sep 14, 2026, 11:51 UTC

1 60212U 24126B   26257.49417656  .00000263  00000-0  34908-4 0  9999
2 60212  97.8213 263.7958 0002120  92.4667 267.6792 14.87579927119179

Sigue TIANHUI 5D en tiempo real con AllMySat

Download on the App Store